Find Starlink 31496

NORAD ID: 59211 Int'l Des: 2024-046 Owner: SPXS Country: US Constellation: starlink operational
LEOCIRCULAR

現在のビュー

3D地球を読み込み中...

About Starlink 31496

Starlink 31496 (NORAD 59211) is a starlink constellation satellite (v2 mini) launched Mar 11, 2024 by SPXS of US. It operates in LEO, CIRCULAR orbit with a mass of 730.00 kg.

Starlink 31496について

説明を読み込み中...

次回通過

Passes for default location (London). Set your location on the main map for personalized predictions.

高度履歴

Loading altitude history...

軌道要素

1 59211U 24046L 26166.37135782 -.00000484 00000-0 -42090-5 0 9999
2 59211 53.1621 48.9434 0001477 121.8423 238.2721 15.30201970128172
Epoch: Jun 15, 2026 • Age: 12 hours

現在のステータス

高度 488.8 km
速度 7.62 km/s
衛星直下点 -40.16°S, 47.91°E
打ち上げ日 Mar 11, 2024
運用期間 2.2 years
タイプ internet

技術仕様

分類 Payload
質量 730.00 kg
乾燥質量 700.00 kg
総質量 730.00 kg
長さ 0.30 m
直径 4.10 m
スパン 29.00 m
形状 Box + pan
製造者 SPXS
バスタイプ Starlink V2M
フェーズステータス In Orbit
所有者/国 SPXS/US

Most Searched